This demonstration page uses our WeatherBlox Daily Observations layout. Learn more.

Left ArrowRight Arrow

41.55636, -103.73856

Hourly Observations for April 9, 2015

Temp ( °F °C ) Dew Point ( °F °C ) Humidity (%) Winds ( mph kmh ) Pressure ( in mb ) Visibility ( mi km ) Precip ( " mm )
12:00 am 00:00 Cloudy with Light Rain 39 4 N/A N/A N 16 26 29.88 1012 7 11 0.00 0.00
12:23 am 00:23 Cloudy with Rain 37 3 N/A N/A N 16 26 29.88 1012 5 8 0.03 0.76
12:53 am 00:53 Cloudy with Rain 37 3 N/A N/A N 12 19 29.81 1010 5 8 0.09 2.29
1:13 am 01:13 Cloudy with Light Snow 34 1 N/A N/A N 9 15 29.94 1014 3 4 0.05 1.27
1:51 am 01:51 Cloudy with Light Snow 34 1 N/A N/A WNW 8 13 30.00 1016 1 2 0.14 3.56
1:53 am 01:53 Mostly Cloudy with Light Snow 34 1 N/A N/A WNW 8 13 29.84 1011 1 2 0.14 3.56
2:00 am 02:00 Cloudy with Light Snow 34 1 N/A N/A WNW 10 17 29.94 1014 1 2 0.00 0.00
2:41 am 02:41 Cloudy with Light Snow 34 1 N/A N/A WNW 8 13 30.00 1016 3 4 0.07 1.78
2:53 am 02:53 Cloudy with Light Snow 34 1 N/A N/A W 8 13 29.85 1011 3 4 0.08 2.03
3:03 am 03:03 Cloudy with Light Snow 34 1 N/A N/A WNW 9 15 30.00 1016 3 5 0.00 0.00
3:53 am 03:53 Cloudy with Light Snow 34 1 N/A N/A NW 10 17 29.88 1012 3 4 0.01 0.25
4:00 am 04:00 Cloudy with Light Snow 34 1 N/A N/A NW 8 13 30.03 1017 2 3 0.00 0.00
4:07 am 04:07 Cloudy with Light Snow 34 1 N/A N/A NW 8 13 30.03 1017 1 2 0.02 0.51
4:48 am 04:48 Cloudy with Light Snow 34 1 N/A N/A WNW 8 13 30.03 1017 2 3 0.00 0.00
4:53 am 04:53 Cloudy with Light Snow 34 1 N/A N/A WNW 7 11 29.91 1013 3 5 0.06 1.52
5:12 am 05:12 Cloudy with Light Wintry Mix 34 1 N/A N/A NW 9 15 30.03 1017 8 13 0.00 0.00
5:53 am 05:53 Cloudy 34 1 N/A N/A NW 10 17 29.95 1014 10 16 0.01 0.25
6:09 am 06:09 Cloudy 34 1 N/A N/A NNW 16 26 30.06 1018 10 16 0.00 0.00
6:53 am 06:53 Cloudy 34 1.1 34 1.1 100 100 NNW 12 19 30.00 1016 8 13 0.00 0.03
7:12 am 07:12 Cloudy with Light Snow 34 1 34 1 100 100 NNW 12 19 30.09 1019 2 3 0.00 0.00
7:25 am 07:25 Cloudy with Light Snow 34 1.1 34 1.1 100 100 NW 8 13 30.09 1019 3 5 0.00 0.03
7:38 am 07:38 Cloudy with Light Snow 34 1 34 1 100 100 NNW 12 19 30.09 1019 4 6 0.00 0.00
7:53 am 07:53 Cloudy with Light Snow 35 1.7 35 1.7 100 100 NNW 17 28 30.05 1018 6 10 0.00 0.03
8:01 am 08:01 Cloudy with Light Snow 35 1.7 33 0.6 93 93 NNW 18 30 30.12 1020 6 10 0.00 0.03
8:53 am 08:53 Cloudy 36 2.2 32 0 86 86 NNW 20 31 30.08 1019 10 16 0.00 0.03
9:53 am 09:53 Cloudy 36 2.2 32 0 86 86 N 10 17 30.12 1020 10 16 0.00 0.03
10:53 am 10:53 Cloudy 37 2.8 33 0.6 86 86 NNW 16 26 30.14 1021 10 16 0.00 0.00
11:53 am 11:53 Cloudy 40 4.4 33 0.6 77 77 NW 16 26 30.15 1021 10 16 0.00 0.00
12:53 pm 12:53 Cloudy 43 6.1 32 0 65 65 NNW 17 28 30.14 1021 10 16 0.00 0.00
1:00 pm 13:00 Cloudy 45 7 34 1 66 66 N 20 31 30.12 1020 10 16 0.00 0.00
1:08 pm 13:08 Mostly Cloudy 46 8 34 1 62 62 NNW 17 28 30.12 1020 10 16 0.00 0.00
1:53 pm 13:53 Mostly Cloudy 47 8.3 29 -1.7 50 50 NNW 17 28 30.14 1021 10 16 0.00 0.00
2:53 pm 14:53 Mostly Sunny 49 9.4 29 -1.7 46 46 NW 10 17 30.13 1020 10 16 0.00 0.00
3:53 pm 15:53 Sunny 51 10.6 28 -2.2 41 41 NNW 14 22 30.10 1019 10 16 0.00 0.00
4:53 pm 16:53 Sunny 52 11.1 26 -3.3 37 37 NW 12 19 30.10 1019 10 16 0.00 0.00
5:53 pm 17:53 Sunny 52 11.1 24 -4.4 34 34 W 7 11 30.09 1019 10 16 0.00 0.00
6:53 pm 18:53 Sunny 50 10 25 -3.9 38 38 WNW 5 7 30.11 1020 10 16 0.00 0.00
7:53 pm 19:53 Clear 42 5.6 29 -1.7 60 60 N 6 9 30.13 1020 10 16 0.00 0.00
8:53 pm 20:53 Clear 40 4.4 29 -1.7 65 65 Calm 30.16 1022 10 16 0.00 0.00
9:53 pm 21:53 Clear 36 2.2 28 -2.2 73 73 ENE 5 7 30.17 1022 10 16 0.00 0.00
10:53 pm 22:53 Clear 33 0.6 28 -2.2 82 82 ESE 5 7 30.18 1022 10 16 0.00 0.00
11:53 pm 23:53 Clear 36 2.2 26 -3.3 67 67 SSE 5 7 30.16 1021 10 16 0.00 0.00

Powered by AerisWeather